Weather History for Baker, MT

Change the Weather History Date:

Wednesday, December 12, 2012

  Actual Average Record
Temperature  
Mean Temperature 31 °F -  
Max Temperature 37 °F -8 °F 52 °F (2013)
Min Temperature 25 °F 24 °F -18 °F (2000)
Degree Days  
Heating Degree Days 34    
Moisture  
Dew Point 26 °F    
Average Humidity 79    
Maximum Humidity 93    
Minimum Humidity 59    
Precipitation  
Precipitation 0.04 in - - ()
Sea Level Pressure  
Sea Level Pressure 29.74 in    
Wind  
Wind Speed 4 mph (East)    
Max Wind Speed 12 mph    
Max Gust Speed -    
Visibility 7 miles    
Events Snow    
Averages and records for this station are not official NWS values.
T = Trace of Precipitation, MM = Missing Value Source: NWS Daily Summary

Daily Weather History Graph

Daily Weather History Graph

Search for Another Location

Airport:

Trip Planner

Search our weather history database for the weather conditions in past years. The results will help you decide how hot, cold, wet, or windy it might be!

Date:

Astronomy

Dec. 12, 2012 Rise Set
Actual Time 7:31 AM MST 4:10 PM MST
Civil Twilight 6:56 AM MST 4:45 PM MST
Nautical Twilight 6:18 AM MST 5:23 PM MST
Astronomical Twilight 5:42 AM MST 6:00 PM MST
Moon 6:37 AM MST (12/12) 3:51 PM MST (12/12)
Length of Visible Light 9h 48m
Length of Day
8h 38m
Waning Crescent, 0% of the Moon is Illuminated
Dec 12
Waning Crescent
Dec 13
New
Dec 19
First Quarter
Dec 28
Full
Jan 4
Last Quarter

Hourly Weather History & Observations

Time (MST) Temp. Windchill Dew Point Humidity Pressure Visibility Wind Dir Wind Speed Gust Speed Precip Events Conditions
12:51 AM 30.9 °F - 21.9 °F 69% 29.60 in 10.0 mi Calm Calm - N/A   Overcast
1:51 AM 34.0 °F 25.5 °F 21.0 °F 59% 29.60 in 10.0 mi SW 11.5 mph - N/A   Mostly Cloudy
2:51 AM 34.0 °F 25.5 °F 21.9 °F 61% 29.62 in 10.0 mi WSW 11.5 mph - N/A   Clear
3:51 AM 30.0 °F - 19.9 °F 66% 29.62 in 10.0 mi Calm Calm - N/A   Clear
4:51 AM 32.0 °F - 19.9 °F 61% 29.63 in 10.0 mi Calm Calm - N/A   Overcast
5:51 AM 26.1 °F - 18.0 °F 71% 29.66 in 10.0 mi Calm Calm - N/A   Scattered Clouds
6:51 AM 25.0 °F - 18.0 °F 75% 29.66 in 10.0 mi Calm Calm - N/A   Overcast
7:51 AM 27.0 °F 23.0 °F 21.0 °F 78% 29.67 in 10.0 mi NNW 3.5 mph - N/A   Overcast
8:51 AM 30.0 °F - 21.9 °F 72% 29.69 in 10.0 mi Calm Calm - N/A   Overcast
9:51 AM 34.0 °F - 25.0 °F 70% 29.70 in 10.0 mi Calm Calm - N/A   Overcast
10:51 AM 36.0 °F - 27.0 °F 70% 29.69 in 10.0 mi Calm Calm - N/A   Overcast
11:51 AM 37.9 °F 34.4 °F 27.0 °F 65% 29.68 in 10.0 mi ENE 4.6 mph - N/A   Overcast
1:51 PM 37.0 °F 31.6 °F 27.0 °F 67% 29.68 in 10.0 mi ESE 6.9 mph - N/A   Overcast
2:51 PM 36.0 °F 32.1 °F 28.0 °F 73% 29.70 in 10.0 mi ENE 4.6 mph - 0.00 in   Overcast
3:51 PM 34.0 °F 28.0 °F 28.0 °F 79% 29.73 in 10.0 mi NE 6.9 mph - 0.00 in   Overcast
3:57 PM 33.8 °F 26.4 °F 28.4 °F 81% 29.67 in 10.0 mi ENE 9.2 mph - N/A   Overcast
4:51 PM 33.1 °F 25.5 °F 28.9 °F 85% 29.75 in 9.0 mi East 9.2 mph - 0.00 in Snow Light Snow
5:51 PM 33.1 °F 26.9 °F 28.9 °F 85% 29.78 in 7.0 mi ENE 6.9 mph - 0.00 in Snow Light Snow
5:58 PM 33.8 °F 28.6 °F 28.4 °F 81% 29.71 in 8.0 mi East 5.8 mph - 0.00 in Snow Light Snow
6:23 PM 33.8 °F 28.6 °F 28.4 °F 81% 29.71 in 4.0 mi East 5.8 mph - 0.00 in Snow Light Snow
6:51 PM 33.1 °F 27.7 °F 28.9 °F 85% 29.81 in 5.0 mi East 5.8 mph - 0.00 in Snow Light Snow
7:08 PM 32.0 °F 27.5 °F 28.4 °F 87% 29.73 in 2.5 mi East 4.6 mph - 0.00 in Snow Light Snow
7:45 PM 32.0 °F 28.7 °F 28.4 °F 87% 29.74 in 4.0 mi East 3.5 mph - 0.01 in Snow Light Snow
7:51 PM 33.1 °F - 28.9 °F 85% 29.82 in 3.0 mi Calm Calm - 0.01 in Snow Light Snow
7:55 PM 32.0 °F 28.7 °F 28.4 °F 87% 29.74 in 2.5 mi East 3.5 mph - 0.01 in Snow Light Snow
8:02 PM 32.0 °F 28.7 °F 28.4 °F 87% 29.75 in 3.0 mi East 3.5 mph - 0.01 in Snow Light Snow
8:11 PM 32.0 °F - 28.4 °F 87% 29.76 in 2.5 mi Calm Calm - 0.01 in Snow Light Snow
8:51 PM 32.0 °F 28.7 °F 28.9 °F 88% 29.85 in 2.0 mi East 3.5 mph - 0.02 in Snow Light Snow
9:19 PM 32.0 °F 28.7 °F 28.4 °F 87% 29.79 in 3.0 mi East 3.5 mph - 0.01 in Snow Light Snow
9:51 PM 32.0 °F 28.7 °F 28.9 °F 88% 29.87 in 3.0 mi East 3.5 mph - 0.01 in Snow Light Snow
10:26 PM 32.0 °F 27.5 °F 28.4 °F 87% 29.81 in 4.0 mi East 4.6 mph - 0.00 in Snow Light Snow
10:32 PM 32.0 °F 27.5 °F 28.4 °F 87% 29.82 in 4.0 mi East 4.6 mph - 0.00 in Snow Light Snow
10:51 PM 30.9 °F 27.5 °F 28.0 °F 89% 29.88 in 6.0 mi East 3.5 mph - 0.00 in Snow Light Snow
11:05 PM 30.2 °F - 28.4 °F 93% 29.83 in 7.0 mi Calm Calm - 0.00 in   Overcast
11:31 PM 30.2 °F 26.7 °F 26.6 °F 86% 29.83 in 9.0 mi East 3.5 mph - 0.00 in   Overcast
11:48 PM 28.4 °F - 26.6 °F 93% 29.84 in 9.0 mi Calm Calm - 0.00 in   Overcast
11:51 PM 30.0 °F - 27.0 °F 88% 29.90 in 9.0 mi Calm Calm - 0.00 in   Overcast